[[{"header":{"parameterUnit":"m.s-1","parameterCategory":1,"la1":30.2991,"la2":30.254,"lo1":-89.0895,"lo2":-89.0444,"dy":0.0017,"dx":0.0017,"nx":28,"ny":28,"refTime":"2025-04-02T03:00:00:Z","depth":0,"parameterNumber":2,"parameterNumberName":"U-component_of_WINDS"},"data":[0,0,0,0,0,0,0,0,0,0,0,0,0,0,0,0,0,0,0,0,0,0,0,0,0,0,0,0,0,0,0,0,0,0,0,0,0,0,0,0,0,0,0,0,0,0,0,0,0,0,0,0,0,0,0,0,0,0,-3.8868,-3.887,0,-3.9008,-3.901,-3.9012,-3.9037,-3.9036,-3.9035,-3.9034,-3.9178,-3.9183,-3.9187,0,0,0,0,0,0,0,0,0,0,0,0,0,-3.8625,-3.8629,-3.8868,-3.887,-3.8872,-3.9008,-3.901,-3.9012,-3.9038,-3.9036,-3.9035,-3.9034,-3.9176,-3.9182,-3.9188,0,0,0,0,0,0,0,0,0,0,0,0,0,-3.8744,-3.863,-3.8868,-3.8901,-3.8905,-3.9008,-3.901,-3.9012,-3.9038,-3.9036,-3.9035,-3.9033,-3.9174,-3.9181,-3.9189,-3.9268,0,0,-3.9211,-3.9214,0,0,0,0,0,0,0,0,-3.8737,-3.8753,-3.8894,-3.8899,-3.8904,-3.9004,-3.8977,-3.9098,-3.9038,-3.8988,-3.9034,-3.9032,-3.9121,-3.9133,-3.9163,-3.9275,-3.9281,-3.9212,-3.9216,-3.9219,-3.9221,0,0,0,0,0,0,0,-3.8729,-3.8747,-3.8924,-3.8896,-3.8902,-3.8909,-3.8924,-3.9,-3.9062,-3.8992,-3.8994,-3.901,-3.9124,-3.9156,-3.9166,-3.9283,-3.9212,-3.9218,-3.9223,-3.9225,-3.9468,-3.9469,0,0,0,0,0,0,-3.8715,-3.874,-3.8919,-3.8928,-3.8815,-3.8915,-3.8932,-3.8973,-3.9062,-3.9073,-3.9012,-3.9011,-3.9144,-3.9158,-3.9172,-3.927,-3.9219,-3.9226,-3.923,-3.9466,-3.9468,-3.947,0,0,0,0,0,0,-3.8709,-3.873,-3.8914,-3.8835,-3.8859,-3.8921,-3.8967,-3.8977,-3.9009,-3.9076,-3.9088,-3.9033,-3.9143,-3.9161,-3.9244,-3.9275,-3.9229,-3.9236,-3.9463,-3.9466,-3.9469,-3.9467,0,0,0,0,0,0,-3.8702,-3.8728,-3.8759,-3.8835,-3.8863,-3.8983,-3.8969,-3.8981,-3.9022,-3.9022,-3.9099,-3.9111,-3.9143,-3.9233,-3.9251,-3.9285,-3.9242,-3.9461,-3.9465,-3.9468,-3.9465,-3.947,-3.9474,0,0,0,0,0,-3.8693,-3.8753,-3.876,-3.8781,-3.8902,-3.8985,-3.9001,-3.9037,-3.9024,-3.9055,-3.9099,-3.9108,-3.9269,-3.9241,-3.9262,-3.9298,-3.9459,-3.9463,-3.9468,-3.9463,-3.9469,-3.9474,0,0,0,0,0,0,-3.8678,-3.8763,-3.8772,-3.8858,-3.8914,-3.8989,-3.9029,-3.9042,-3.9103,-3.9101,-3.9144,-3.9161,-3.9241,-3.9278,-3.9245,-3.938,-3.9363,-3.9372,-3.9352,-3.9359,-3.9363,-3.9352,-3.9248,0,0,0,0,0,-3.8685,-3.8745,-3.8816,-3.8885,-3.8912,-3.8966,-3.9004,-3.9027,-3.9087,-3.911,-3.916,-3.9218,-3.9282,-3.9323,-3.9385,-3.9471,-3.9488,-3.9507,-3.9511,-3.9515,-3.9522,-3.957,-3.9579,-3.9485,-3.9485,-3.9485,0,0,-3.8699,-3.8753,-3.8788,-3.8883,-3.8929,-3.899,-3.8986,-3.9051,-3.9097,-3.912,-3.9201,-3.924,-3.9307,-3.9392,-3.9432,-3.9425,-3.9552,-3.9521,-3.9523,-3.9528,-3.9576,-3.9584,-3.9592,-3.9488,-3.9488,-3.9487,0,0,-3.8755,-3.8803,-3.8865,-3.8911,-3.8981,-3.9017,-3.9032,-3.9106,-3.9132,-3.9214,-3.9233,-3.9289,-3.9398,-3.9445,-3.9483,-3.956,-3.9571,-3.9579,-3.9603,-3.965,-3.9657,-3.9664,-3.9691,-3.97,-3.9586,-3.9586,-3.9586,0,-3.8764,-3.8857,-3.8895,-3.896,-3.9001,-3.9026,-3.9089,-3.9133,-3.922,-3.9248,-3.924,-3.9377,-3.9425,-3.9521,-3.9539,-3.957,-3.9588,-3.957,-3.9653,-3.966,-3.9667,-3.9693,-3.9703,-3.9587,-3.9587,-3.9587,-3.9586,0,-3.8864,-3.8928,-3.897,-3.9053,-3.91,-3.9163,-3.9212,-3.9254,-3.9274,-3.9311,-3.9394,-3.9452,-3.9527,-3.9552,-3.9572,-3.9651,-3.9645,-3.9645,-3.9628,-3.9676,-3.9701,-3.9711,-3.9587,-3.9587,-3.9587,-3.9587,0,0,-3.8913,-3.9017,-3.9032,-3.907,-3.915,-3.9201,-3.9266,-3.9339,-3.9374,-3.9434,-3.949,-3.9582,-3.9583,-3.9626,-3.9652,-3.9693,-3.975,-3.9688,-3.969,-3.9697,-3.984,-3.9839,-3.985,-3.9758,-3.976,-3.9762,-3.9834,0,-3.8978,-3.9095,-3.9132,-3.9229,-3.9289,-3.9315,-3.9372,-3.9427,-3.9463,-3.952,-3.9561,-3.9625,-3.9621,-3.9647,-3.969,-3.9734,-3.9779,-3.9729,-3.981,-3.9812,-3.9791,-3.9863,-3.9862,-3.9927,-3.9844,-3.9846,-3.9847,0,-3.907,-3.9131,-3.9234,-3.9307,-3.9333,-3.9384,-3.9454,-3.9508,-3.9571,-3.9595,-3.9644,-3.9667,-3.9737,-3.9718,-3.9815,-3.978,-3.9816,-3.9843,-3.9847,-3.9854,-3.9831,-3.9872,-3.9949,-3.9958,-3.9863,-3.9862,-3.9861,0,-3.9094,-3.9203,-3.9278,-3.931,-3.9397,-3.9432,-3.947,-3.9532,-3.9574,-3.9635,-3.9663,-3.9732,-3.977,-3.9823,-3.9864,-3.9847,-3.9958,-3.9942,-3.9979,-3.9978,-4.0,-3.9997,-4.0083,-4.0025,-4.0025,-4.0024,-4.0024,0,-3.9163,-3.9225,-3.929,-3.9337,-3.9407,-3.945,-3.9519,-3.9558,-3.9613,-3.9668,-3.9695,-3.9746,-3.9798,-3.9856,-3.9889,-3.9964,-3.9981,-4.0002,-4.001,-3.9999,-3.9996,-4.0022,-4.0018,-4.0027,-4.0026,-4.0026,-4.0026,0,-3.9201,-3.9248,-3.9332,-3.9407,-3.9428,-3.9476,-3.9541,-3.9588,-3.9626,-3.9695,-3.9714,-3.9774,-3.9843,-3.989,-3.998,-4.0002,-4.0083,-4.0091,-4.0061,-4.0065,-4.0099,-4.0094,-4.0202,-4.0218,-4.015,-4.0151,-4.0152,0,-3.9241,-3.9289,-3.937,-3.9409,-3.9447,-3.9508,-3.9551,-3.9596,-3.9639,-3.9716,-3.9753,-3.9825,-3.9884,-3.9995,-4.0047,-4.0116,-4.0124,-4.0158,-4.0135,-4.0122,-4.0124,-4.012,-4.0125,-4.016,-4.0161,-4.0161,-4.0162,0,-3.9307,-3.9328,-3.9388,-3.9457,-3.9507,-3.9563,-3.962,-3.965,-3.9705,-3.9752,-3.9824,-3.987,-3.9962,-4.0033,-4.0107,-4.0146,-4.0163,-4.0169,-4.0181,-4.0169,-4.015,-4.016,-4.007,-4.0166,-4.0165,-4.0165,-4.0165,-4.0165,-3.9347,-3.9391,-3.9455,-3.9521,-3.9568,-3.9621,-3.9668,-3.9712,-3.9773,-3.985,-3.9873,-3.9948,-4.0012,-4.0112,-4.0154,-4.0213,-4.021,-4.0227,-4.0231,-4.0235,-4.0234,-4.0142,-4.0227,-4.0227,-4.0227,-4.0227,-4.0227,0,-3.9413,-3.9456,-3.9517,-3.9595,-3.9647,-3.9659,-3.9723,-3.9766,-3.9831,-3.9889,-3.9947,-4.0029,-4.0098,-4.0156,-4.0228,-4.0264,-4.0274,-4.0281,-4.0278,-4.0287,-4.0233,-4.0215,-4.0272,-4.0272,-4.0272,-4.0272,-4.0272,-4.0272,-3.9454,-3.9529,-3.9557,-3.9656,-3.9699,-3.9772,-3.9807,-3.9856,-3.9902,-3.9993,-4.005,-4.0087,-4.0145,-4.0221,-4.0286,-4.0301,-4.0326,-4.0331,-4.0348,-4.0296,-4.0291,-4.0286,-4.0269,-4.0337,-4.0337,-4.0397,-4.0398,-4.0398]},{"header":{"parameterUnit":"m.s-1","parameterCategory":1,"la1":30.2991,"la2":30.254,"lo1":-89.0895,"lo2":-89.0444,"dy":0.0017,"dx":0.0017,"nx":28,"ny":28,"refTime":"2025-04-02T03:00:00:Z","depth":0,"parameterNumber":3,"parameterNumberName":"V-component_of_WINDS"},"data":[0,0,0,0,0,0,0,0,0,0,0,0,0,0,0,0,0,0,0,0,0,0,0,0,0,0,0,0,0,0,0,0,0,0,0,0,0,0,0,0,0,0,0,0,0,0,0,0,0,0,0,0,0,0,0,0,0,0,6.3117,6.3119,0,6.3279,6.3281,6.3283,6.3279,6.3276,6.3274,6.3272,6.3437,6.3443,6.3449,0,0,0,0,0,0,0,0,0,0,0,0,0,6.2805,6.2811,6.3117,6.3119,6.3121,6.3279,6.3281,6.3283,6.3279,6.3276,6.3274,6.3271,6.3435,6.3442,6.345,0,0,0,0,0,0,0,0,0,0,0,0,0,6.2951,6.2813,6.3117,6.3138,6.3142,6.3278,6.3281,6.3284,6.328,6.3276,6.3273,6.327,6.3432,6.3442,6.3451,6.3577,0,0,6.3481,6.3485,0,0,0,0,0,0,0,0,6.2943,6.2963,6.3133,6.3137,6.3141,6.3255,6.3231,6.3382,6.328,6.3227,6.3272,6.3268,6.3379,6.3393,6.343,6.3585,6.3592,6.3482,6.3487,6.3492,6.3494,0,0,0,0,0,0,0,6.2933,6.2956,6.3181,6.3135,6.314,6.314,6.3157,6.326,6.332,6.3232,6.3232,6.3251,6.3381,6.3421,6.3434,6.3594,6.3481,6.349,6.3496,6.35,6.3863,6.3867,0,0,0,0,0,0,6.2918,6.2947,6.3176,6.3186,6.3032,6.3148,6.3167,6.3222,6.3318,6.333,6.3254,6.325,6.3406,6.3423,6.344,6.3596,6.3491,6.35,6.3506,6.3859,6.3864,6.3868,0,0,0,0,0,0,6.2912,6.2939,6.3169,6.3067,6.3096,6.3157,6.3218,6.3227,6.3267,6.3335,6.3346,6.3284,6.3404,6.3426,6.3544,6.3602,6.3505,6.3514,6.3855,6.3861,6.3866,6.3908,0,0,0,0,0,0,6.2903,6.2936,6.2984,6.3068,6.3102,6.327,6.3222,6.3232,6.3284,6.3281,6.3367,6.3377,6.3403,6.3529,6.3553,6.3613,6.3521,6.385,6.3857,6.3864,6.3901,6.3914,6.3925,0,0,0,0,0,6.2892,6.2989,6.2987,6.3014,6.3163,6.3273,6.3293,6.3321,6.3289,6.3338,6.3382,6.3375,6.3591,6.3541,6.3568,6.3632,6.3846,6.3855,6.3864,6.3896,6.3912,6.3925,0,0,0,0,0,0,6.2909,6.3,6.2999,6.3126,6.3192,6.3273,6.3335,6.3336,6.3413,6.3407,6.3438,6.3457,6.3575,6.3615,6.3558,6.3761,6.3715,6.3729,6.373,6.3746,6.3757,6.3746,6.3529,0,0,0,0,0,6.2928,6.301,6.3085,6.319,6.3223,6.3274,6.3323,6.3339,6.3409,6.3437,6.3489,6.3557,6.3641,6.3695,6.3776,6.3907,6.3927,6.3964,6.3976,6.3985,6.3998,6.4073,6.4092,6.3897,6.3897,6.3896,0,0,6.2967,6.3027,6.3077,6.3195,6.3248,6.3333,6.3297,6.3388,6.3452,6.345,6.3565,6.3606,6.3684,6.381,6.3868,6.3847,6.4056,6.3997,6.4003,6.4011,6.4084,6.4102,6.4119,6.3903,6.3902,6.3901,0,0,6.3083,6.3136,6.323,6.3285,6.3367,6.34,6.3423,6.3504,6.3532,6.3648,6.3649,6.3726,6.3868,6.3925,6.3972,6.4113,6.411,6.4138,6.42,6.4273,6.4289,6.4302,6.4355,6.4373,6.415,6.415,6.415,0,6.3122,6.325,6.3278,6.3371,6.3424,6.3428,6.3525,6.3576,6.368,6.3717,6.3692,6.3873,6.3926,6.4066,6.4101,6.4138,6.4166,6.4129,6.4284,6.4298,6.4312,6.4362,6.4381,6.4153,6.4153,6.4153,6.4152,0,6.3295,6.3384,6.345,6.3552,6.3612,6.3706,6.375,6.3808,6.3819,6.3856,6.3975,6.4039,6.4134,6.4168,6.4179,6.4311,6.4296,6.4277,6.4232,6.4333,6.4381,6.44,6.4158,6.4156,6.4156,6.4155,0,0,6.3425,6.3543,6.3567,6.3615,6.3706,6.3776,6.3871,6.3965,6.4015,6.4087,6.4168,6.4291,6.4275,6.4329,6.4347,6.4411,6.4521,6.4385,6.4387,6.441,6.4673,6.4688,6.4709,6.4519,6.4523,6.4526,6.4667,0,6.3552,6.3721,6.3751,6.3899,6.3984,6.399,6.4073,6.4139,6.4176,6.4253,6.4293,6.4381,6.4352,6.4385,6.4449,6.4494,6.4575,6.4484,6.4597,6.4601,6.4579,6.4734,6.4749,6.4879,6.4686,6.4689,6.4691,0,6.3722,6.3801,6.3958,6.4041,6.4077,6.4151,6.4241,6.4314,6.439,6.4413,6.4474,6.4486,6.4586,6.4536,6.4676,6.4614,6.4662,6.4692,6.4697,6.471,6.4653,6.4753,6.4921,6.4942,6.4721,6.4718,6.4716,0,6.3805,6.3949,6.4062,6.4102,6.4201,6.4254,6.4298,6.437,6.4425,6.4504,6.4541,6.4629,6.4678,6.4747,6.4783,6.4743,6.4921,6.4873,6.4944,6.4943,6.4982,6.4979,6.5162,6.501,6.501,6.5009,6.5009,0,6.3944,6.4041,6.4101,6.4171,6.428,6.4314,6.4421,6.4463,6.4528,6.4607,6.4617,6.4691,6.4733,6.4814,6.4842,6.4955,6.4976,6.4999,6.5005,6.4999,6.4996,6.5031,6.5024,6.5014,6.5013,6.5012,6.5011,0,6.4055,6.4099,6.4223,6.4308,6.4331,6.4408,6.4481,6.455,6.4587,6.4687,6.4713,6.4772,6.4867,6.491,6.5027,6.5046,6.5176,6.5175,6.5151,6.5154,6.5223,6.5217,6.5436,6.5468,6.5293,6.5294,6.5296,0,6.4142,6.4216,6.431,6.4364,6.4409,6.4496,6.4553,6.459,6.4649,6.4742,6.4801,6.4897,6.4976,6.5128,6.5182,6.5273,6.5275,6.5346,6.5289,6.5281,6.5279,6.5275,6.5284,6.5357,6.5359,6.536,6.5361,0,6.4292,6.4311,6.4393,6.4484,6.4553,6.4626,6.4697,6.4741,6.4789,6.4855,6.4954,6.5015,6.5137,6.5233,6.5327,6.5373,6.5376,6.5379,6.54,6.5395,6.5379,6.5391,6.5181,6.5374,6.5372,6.5371,6.5371,6.537,6.4395,6.4463,6.454,6.4632,6.469,6.4758,6.4827,6.4874,6.4957,6.506,6.5076,6.5182,6.5258,6.5385,6.5435,6.5518,6.5501,6.5532,6.554,6.5547,6.5553,6.5365,6.5535,6.5535,6.5535,6.5535,6.5534,0,6.4548,6.4599,6.4683,6.4784,6.4857,6.4854,6.4933,6.4995,6.5088,6.5159,6.5237,6.5352,6.5446,6.5508,6.5603,6.5658,6.5662,6.5682,6.5679,6.5691,6.5561,6.5534,6.5678,6.5678,6.5678,6.5678,6.5678,6.5678,6.4637,6.4752,6.478,6.4926,6.4975,6.508,6.5126,6.5189,6.5246,6.5374,6.5452,6.5492,6.556,6.5661,6.5747,6.5763,6.5799,6.582,6.5835,6.5714,6.5699,6.5685,6.566,6.5827,6.5827,6.5958,6.5959,6.596]}]]